Wind_Speed
6 7 8 10 11 12 13 15 16 17 18 18 18 18 20 20 19 20 21 20 20 19 20 21 21 21 22 23 23 24 25 25 24 24 24 24 23 24 24 22 20 20 21 21
8 10 11 12 13 14 15 16 17 17 18 19 19 19 20 21 20 21 20 21 21 21 21 21 22 22 22 22 24 25 25 26 25 25 25 25 25 24 23 22 20 19 20 21
11 13 14 14 15 15 16 16 17 18 19 20 21 20 21 21 21 21 21 21 22 21 21 22 22 21 22 24 26 26 25 25 25 24 23 22 23 22 22 20 20 21 21 22
12 14 15 15 16 16 18 18 19 20 20 20 21 20 22 22 21 21 22 22 21 21 22 22 22 22 23 24 25 25 25 25 25 24 23 22 21 21 21 20 20 20 21 22
13 14 15 15 16 17 18 19 20 20 21 21 21 20 20 20 21 21 21 21 21 21 21 21 21 22 22 24 24 24 24 24 24 23 22 21 20 20 20 20 20 20 21 22
14 15 15 16 17 18 19 20 20 21 21 20 20 18 19 18 20 20 20 20 20 20 20 20 20 21 21 21 22 22 22 22 22 21 20 20 20 21 20 20 20 20 20 21
14 14 15 16 17 18 18 19 19 18 17 17 19 19 19 19 20 20 20 20 19 19 19 18 19 18 17 17 18 19 19 20 19 19 19 18 19 19 19 19 19 20 20 19
14 15 16 16 17 18 18 18 18 18 17 17 19 18 20 21 20 19 20 20 19 18 16 16 16 15 15 15 16 17 17 18 17 18 18 19 19 19 19 19 20 20 20 20
14 16 17 17 17 18 18 17 17 18 18 17 17 18 20 20 19 18 19 19 18 16 15 15 16 16 16 16 17 16 16 16 16 16 17 18 18 19 19 19 20 19 20 20
15 16 17 17 18 18 18 17 17 16 16 16 15 15 16 18 17 17 17 17 15 15 14 14 16 16 16 16 16 16 15 15 14 14 15 16 16 16 17 19 19 19 20 21
14 15 16 17 17 16 16 16 16 15 14 14 14 15 16 17 17 17 17 16 14 15 15 15 15 15 15 15 15 14 14 14 14 13 14 15 15 15 16 17 18 19 20 20
13 14 15 15 15 15 15 14 14 13 13 14 14 15 16 16 16 16 16 16 14 14 14 14 15 15 15 15 14 14 13 13 13 13 13 14 14 15 15 16 18 18 18 19
14 14 15 15 15 15 15 15 14 14 14 15 15 15 16 16 16 15 14 15 14 13 13 14 13 13 13 13 13 12 12 12 12 12 13 14 13 14 14 15 17 17 17 17
15 14 14 14 14 15 15 15 14 15 15 15 15 15 15 16 15 14 14 13 13 13 13 13 13 13 12 12 12 11 11 12 13 13 13 13 13 14 15 15 16 16 16 16
14 14 14 14 14 15 15 15 15 15 15 16 15 15 15 15 15 15 14 13 13 13 14 14 13 13 12 11 11 11 12 12 13 13 13 13 13 14 15 15 16 15 15 16
15 15 15 15 15 16 16 15 16 16 15 15 14 15 15 15 15 15 15 14 14 14 14 14 13 13 13 12 12 12 12 12 13 13 13 14 13 14 15 15 15 15 15 15
16 16 16 15 16 16 16 15 16 16 15 15 15 15 15 15 15 15 14 14 14 15 15 14 14 14 14 12 12 13 12 12 12 13 13 14 14 14 13 13 14 14 15 15
16 16 16 15 15 15 16 15 15 15 16 16 16 16 16 15 15 15 14 14 14 14 14 13 14 14 13 13 12 13 13 13 13 13 14 14 14 14 13 12 13 13 14 15
15 15 15 15 15 15 15 15 15 16 16 17 18 17 15 15 14 13 13 14 14 14 14 14 14 13 13 13 13 13 13 13 13 13 13 14 14 13 12 12 13 13 14 15
16 16 16 15 15 16 17 16 16 16 17 18 18 16 15 15 14 14 14 14 14 14 14 14 14 14 14 14 13 13 13 13 13 13 13 14 14 14 14 14 14 14 14 15
17 17 17 17 17 17 18 18 17 17 18 18 17 16 16 15 15 15 15 15 14 14 13 14 14 14 14 14 13 13 12 12 13 13 14 13 14 14 14 14 14 14 15 15
17 18 18 18 18 19 18 18 18 18 18 18 17 17 16 16 16 16 15 15 15 14 14 14 14 14 13 14 13 12 12 12 13 13 13 14 14 14 15 15 15 15 15 16
18 18 19 18 18 18 18 18 18 18 18 18 18 18 18 17 17 16 15 15 15 14 14 14 14 14 13 13 13 12 13 13 13 13 13 14 15 15 15 15 15 16 16 16
19 18 19 19 18 18 18 18 18 18 18 18 18 18 18 18 17 16 15 15 15 15 15 14 14 13 13 13 12 12 12 13 13 13 14 14 15 15 15 15 16 16 16 17
20 20 20 19 19 19 18 18 17 18 18 18 18 18 18 18 17 16 16 16 15 14 14 14 14 14 13 13 12 12 12 13 13 13 14 14 14 15 15 15 16 16 17 17
21 21 20 19 19 20 19 18 18 18 18 18 18 18 18 18 17 17 16 16 15 14 14 14 14 14 13 13 13 12 12 12 13 13 13 14 14 15 15 16 16 17 17 18
Wind_Direction
302 303 303 301 302 302 303 305 305 303 304 307 308 305 305 305 302 298 296 297 294 288 284 284 281 281 282 281 281 283 285 286 285 283 283 281 281 281 282 281 278 278 277 273
296 296 295 297 300 302 304 306 306 306 305 306 307 305 304 304 304 301 296 296 295 290 285 284 283 283 282 283 283 283 284 284 284 282 281 279 280 282 283 285 281 278 277 275
290 291 292 296 300 301 301 302 303 304 306 307 308 309 305 304 304 304 299 296 294 294 288 286 283 281 279 280 281 282 282 281 281 280 279 277 279 282 283 283 281 280 278 277
289 291 294 297 299 302 300 302 303 304 307 306 308 307 304 305 304 303 302 298 295 294 291 286 282 280 279 281 283 282 282 280 280 278 275 275 278 281 281 281 279 277 279 279
295 295 297 299 301 302 299 303 304 307 307 307 307 306 304 305 303 303 304 301 298 296 293 288 285 284 282 282 284 284 282 280 279 278 277 276 277 280 281 281 281 279 280 281
297 297 298 301 304 304 304 305 307 310 313 310 308 306 306 305 306 306 306 303 301 300 297 293 290 287 285 286 286 284 282 280 279 279 278 277 277 278 279 280 281 282 281 280
301 301 303 305 307 308 309 310 314 314 311 307 308 308 306 308 310 311 310 307 305 304 300 297 294 289 289 288 287 285 283 284 281 278 277 279 278 278 278 281 281 282 283 282
305 304 305 307 306 307 309 309 310 308 307 306 310 309 307 310 313 313 312 311 312 311 307 305 300 298 295 293 290 289 287 287 283 280 279 280 280 279 278 281 282 282 282 281
307 305 305 307 309 310 310 311 311 310 311 310 310 310 311 312 314 313 314 314 313 314 313 310 305 304 305 302 297 294 289 287 285 284 282 282 282 282 283 283 281 281 282 281
308 309 310 311 312 314 314 316 317 318 316 313 315 318 315 316 315 316 317 316 315 315 314 311 310 309 307 305 302 298 294 291 289 289 287 285 285 286 288 286 283 282 283 282
315 316 317 318 317 318 320 320 321 319 318 318 320 319 317 318 318 319 319 317 318 317 313 313 314 312 311 310 307 303 302 297 293 293 290 289 288 291 291 289 286 285 284 284
320 320 321 322 321 323 327 329 329 327 325 326 324 324 320 319 318 319 318 316 318 320 314 313 315 315 313 313 309 306 304 301 298 295 290 292 293 294 294 291 289 288 287 288
323 324 327 329 329 329 330 332 331 330 328 326 327 324 324 321 323 323 322 320 320 323 319 315 317 319 317 317 314 311 307 304 304 304 298 300 298 299 300 297 294 291 293 294
324 325 326 325 326 328 329 331 331 329 327 324 325 322 321 322 323 323 323 321 322 325 325 323 320 322 323 318 315 313 311 314 311 311 308 308 307 306 305 302 301 301 300 299
320 321 322 321 324 324 324 328 329 326 324 322 323 323 322 321 325 324 322 320 318 321 322 323 321 322 321 318 314 311 313 318 319 319 314 313 311 309 307 305 304 304 303 304
318 318 318 318 319 319 320 324 324 324 325 326 326 323 322 321 324 326 325 322 322 320 320 322 321 319 319 318 315 313 314 314 318 321 320 319 315 311 309 307 306 307 309 310
315 315 314 315 315 314 318 321 322 324 327 328 328 326 324 324 326 326 322 322 322 322 323 322 319 320 322 321 321 318 315 316 318 322 323 324 321 317 313 309 309 311 314 314
312 313 313 313 313 315 316 317 319 322 325 325 326 326 324 323 325 324 323 324 322 321 322 320 318 321 323 320 317 318 315 316 318 321 324 328 325 322 319 315 315 315 316 316
307 309 311 313 314 314 314 317 318 320 322 324 325 323 322 320 322 320 319 321 322 322 321 320 319 320 319 319 316 314 315 315 317 319 323 328 329 325 326 324 322 320 318 319
302 305 308 310 310 311 312 315 315 317 319 323 323 322 320 319 319 318 317 318 320 321 320 321 320 318 319 319 316 312 314 316 316 320 325 329 331 330 329 328 326 325 323 322
299 300 302 303 304 305 308 311 310 312 317 319 320 321 320 317 318 317 315 316 317 318 319 320 319 320 322 322 319 318 316 313 314 319 324 327 327 330 331 331 330 329 328 327
296 296 298 298 300 300 306 306 306 308 311 314 315 316 316 316 316 316 313 313 316 315 315 317 318 319 321 322 320 317 316 316 316 318 320 324 326 328 332 332 331 331 330 331
291 292 293 294 296 300 303 304 305 306 308 311 312 312 313 315 314 314 314 311 312 313 312 314 316 315 319 321 318 317 316 315 317 319 323 325 329 331 331 332 332 330 330 331
288 287 289 291 293 297 302 302 301 302 305 308 309 310 310 312 312 312 311 309 309 310 308 310 312 314 318 318 317 317 318 317 315 317 320 325 327 329 330 330 332 332 331 331
287 290 290 290 291 294 297 297 297 300 302 306 307 308 308 310 310 307 306 305 304 305 305 305 308 312 315 316 317 316 316 317 317 319 321 324 326 327 329 330 331 332 331 330
286 287 287 288 289 292 296 295 295 296 299 302 303 304 307 308 307 306 306 305 303 302 303 302 303 305 307 310 313 314 315 317 320 322 323 323 324 325 328 329 330 331 330 329
Height
5866 5867 5866 5866 5865 5864 5863 5861 5859 5856 5853 5851 5849 5847 5844 5842 5840 5838 5836 5834 5832 5830 5829 5828 5827 5826 5824 5823 5823 5822 5820 5818 5816 5815 5813 5811 5810 5809 5807 5806 5805 5805 5805 5805
5866 5865 5864 5863 5862 5861 5859 5858 5855 5853 5850 5848 5845 5843 5841 5838 5836 5834 5831 5829 5827 5825 5824 5822 5821 5820 5819 5818 5817 5816 5814 5812 5811 5809 5807 5806 5804 5803 5802 5801 5800 5800 5800 5800
5864 5864 5861 5860 5859 5857 5856 5854 5852 5849 5847 5844 5842 5840 5837 5834 5832 5829 5826 5824 5822 5819 5818 5817 5816 5814 5813 5812 5811 5809 5808 5806 5805 5803 5802 5800 5799 5798 5797 5796 5795 5795 5795 5794
5861 5860 5859 5857 5855 5854 5852 5850 5848 5845 5843 5842 5839 5837 5833 5830 5828 5825 5822 5819 5816 5814 5812 5811 5809 5808 5807 5806 5804 5802 5801 5800 5799 5797 5796 5794 5794 5793 5792 5791 5790 5790 5789 5789
5857 5856 5855 5853 5852 5850 5848 5846 5844 5841 5839 5837 5835 5833 5830 5827 5823 5821 5818 5815 5812 5809 5807 5805 5804 5802 5801 5799 5798 5796 5795 5794 5792 5791 5790 5789 5788 5788 5787 5786 5785 5784 5784 5783
5854 5852 5851 5849 5847 5845 5843 5842 5840 5837 5835 5833 5830 5829 5826 5823 5819 5816 5813 5810 5807 5804 5802 5800 5798 5797 5795 5793 5791 5790 5789 5788 5786 5785 5784 5784 5783 5782 5781 5781 5780 5779 5778 5777
5851 5849 5847 5846 5844 5841 5840 5838 5837 5835 5833 5831 5826 5823 5822 5817 5814 5811 5808 5805 5802 5799 5797 5795 5793 5791 5788 5787 5785 5784 5783 5782 5781 5780 5779 5779 5778 5777 5776 5776 5775 5774 5773 5772
5849 5847 5844 5842 5840 5838 5835 5834 5833 5831 5828 5826 5822 5819 5816 5812 5809 5806 5803 5800 5797 5795 5792 5790 5788 5786 5784 5782 5780 5779 5778 5777 5776 5775 5774 5774 5773 5772 5771 5770 5769 5768 5767 5766
5845 5844 5841 5838 5836 5834 5831 5829 5827 5825 5822 5820 5818 5814 5811 5807 5805 5802 5799 5796 5793 5791 5788 5786 5784 5782 5780 5778 5776 5774 5773 5772 5771 5770 5769 5769 5767 5767 5766 5765 5763 5762 5761 5760
5841 5840 5837 5834 5832 5829 5827 5824 5822 5820 5817 5815 5814 5811 5807 5803 5801 5798 5795 5792 5789 5787 5785 5782 5780 5778 5776 5774 5772 5770 5769 5767 5766 5765 5764 5764 5763 5761 5760 5759 5758 5757 5756 5754
5838 5836 5834 5831 5828 5826 5823 5821 5818 5816 5814 5812 5810 5810 5803 5800 5797 5794 5791 5788 5786 5783 5781 5779 5776 5774 5772 5770 5768 5767 5765 5764 5762 5761 5760 5759 5758 5757 5755 5754 5752 5751 5750 5749
5835 5834 5831 5828 5825 5823 5820 5818 5816 5814 5811 5809 5807 5807 5799 5796 5794 5791 5788 5785 5783 5780 5778 5775 5773 5771 5769 5767 5765 5763 5762 5761 5760 5758 5757 5756 5754 5753 5751 5749 5748 5746 5745 5743
5833 5831 5829 5826 5824 5821 5818 5815 5813 5811 5809 5806 5804 5804 5797 5794 5791 5788 5785 5783 5780 5777 5775 5773 5770 5768 5766 5764 5762 5761 5760 5758 5757 5755 5754 5752 5751 5749 5747 5745 5743 5741 5740 5738
5830 5829 5827 5826 5822 5818 5816 5814 5811 5809 5806 5804 5801 5798 5795 5791 5788 5785 5783 5780 5778 5775 5773 5771 5769 5766 5764 5762 5760 5759 5758 5756 5754 5752 5751 5749 5748 5745 5743 5741 5739 5737 5735 5733
5828 5826 5823 5821 5819 5816 5814 5811 5809 5806 5803 5801 5798 5795 5792 5789 5786 5783 5781 5778 5776 5774 5771 5769 5767 5764 5762 5760 5759 5757 5755 5754 5752 5749 5748 5746 5744 5742 5739 5737 5735 5733 5731 5729
5824 5823 5820 5818 5816 5813 5811 5809 5806 5803 5801 5798 5795 5793 5790 5787 5784 5781 5779 5776 5774 5772 5769 5767 5764 5762 5760 5758 5757 5755 5753 5751 5749 5747 5745 5743 5741 5739 5736 5734 5731 5729 5727 5726
5821 5819 5817 5815 5813 5810 5808 5806 5803 5801 5798 5795 5793 5791 5787 5785 5782 5779 5777 5774 5772 5769 5767 5765 5762 5760 5758 5757 5755 5753 5751 5749 5747 5745 5743 5741 5738 5736 5733 5730 5728 5727 5724 5722
5818 5815 5813 5811 5810 5808 5807 5803 5800 5798 5795 5793 5790 5787 5784 5782 5780 5777 5774 5772 5770 5768 5766 5763 5761 5759 5757 5755 5753 5751 5749 5747 5745 5744 5741 5739 5736 5733 5730 5728 5726 5723 5721 5719
5814 5812 5810 5808 5806 5804 5802 5800 5797 5795 5793 5790 5787 5784 5781 5779 5777 5775 5772 5770 5768 5766 5763 5761 5759 5757 5755 5752 5750 5749 5747 5745 5744 5742 5739 5737 5734 5731 5728 5726 5723 5721 5718 5716
5810 5808 5807 5805 5803 5801 5799 5797 5794 5793 5790 5787 5784 5781 5779 5776 5775 5773 5770 5768 5766 5764 5761 5759 5757 5755 5752 5750 5748 5746 5744 5743 5741 5739 5737 5734 5731 5728 5726 5723 5720 5718 5715 5713
5806 5804 5803 5801 5798 5797 5795 5792 5791 5790 5788 5783 5781 5778 5776 5774 5772 5770 5767 5765 5763 5761 5759 5757 5755 5752 5750 5748 5745 5744 5742 5740 5739 5736 5734 5732 5729 5727 5724 5721 5718 5716 5713 5710
5801 5800 5798 5796 5795 5794 5790 5788 5787 5786 5782 5780 5777 5775 5773 5771 5769 5766 5764 5762 5760 5758 5757 5755 5752 5750 5748 5745 5743 5741 5740 5738 5736 5734 5732 5730 5727 5724 5722 5719 5716 5713 5710 5707
5797 5796 5794 5793 5792 5788 5786 5784 5782 5780 5778 5776 5774 5772 5769 5767 5765 5763 5761 5759 5757 5755 5754 5752 5749 5747 5745 5743 5741 5739 5737 5735 5734 5731 5729 5727 5725 5722 5719 5716 5714 5711 5707 5704
5791 5790 5789 5787 5785 5783 5782 5779 5778 5776 5774 5772 5770 5768 5766 5763 5761 5759 5757 5755 5754 5752 5750 5748 5746 5744 5742 5740 5738 5736 5734 5732 5731 5729 5726 5724 5722 5720 5717 5714 5711 5708 5704 5701
5786 5784 5783 5782 5780 5778 5777 5775 5773 5771 5770 5768 5766 5763 5761 5759 5757 5755 5753 5752 5750 5748 5747 5745 5743 5741 5739 5737 5735 5733 5731 5729 5728 5726 5724 5721 5719 5717 5714 5711 5708 5705 5702 5698
5779 5778 5777 5776 5774 5773 5771 5770 5768 5767 5765 5763 5761 5759 5757 5755 5753 5751 5749 5748 5746 5744 5743 5741 5740 5738 5736 5734 5732 5730 5728 5727 5725 5723 5720 5718 5716 5713 5711 5708 5705 5702 5699 5695